DECAYED

STARLINK-11459, 62464 (Decayed)

Orbit data source: Space-Track

STARLINK-11459, 62464 was a payload satellite owned by SpaceX/Seattle (US) in LEO that was launched on Tue, 31 Dec 2024 UTC via an FALCON 9 launch vehicle from the Air Force Eastern Test Range (AFETR). Payload-class satellites include a variety of spacecraft equipped with specific instruments for various scientific and technological missions. These include communications satellites like Starlink; space stations such as the ISS; scientific satellites like the Hubble; Earth observation satellites from companies like Planet Labs, Umbra, and HawkEye 360; GPS; miniature CubeSats for education and research; and military/defense satellites.

Not visible in the next 10 days
Identifier
62464, 2024-254C
Orbit
Decayed
Country
Flag of USUS
Related business
Manufacturer
SpaceX/Seattle
Mission
Decayed Commercial Communications
Bus & Motor
STARLINK V2MD, Unknown motor
Mass
960 kg wet, ~910 kg dry
Launch date (UTC)
2024-12-31 (1 year ago)
Launch vehicle
FALCON 9
Launch site
Air Force Eastern Test Range (AFETR)
Object type
Payload
Rocket body
Debris
Shape & HBR
Box + 2 Pan, 18.1 m
Radar Cross Section
36.964 m², Large (>1 m²)

Expand to show TLE details & history
Last TLE update: 6 months ago

TLE from 6 months ago
0 STARLINK-11459
1 62464U 24254C   26001.73309409  .06334112  26896-0  96330-2 0  9997
2 62464  42.9778 258.1419 0011558 230.3050 129.6815 16.14110823 58950
Epoch: 2026-01-01T17:35Z
TLE epoch observation values (Epoch: 2026-01-01T17:35:39.329Z)
Latitude
0.00001°
Longitude
-107.15539°
Altitude
240.24 km
Speed
7.762 km/s
True Right ascension
17h 12m 34s
True Declination
0° 00' 00"
Sunlit
Object was in daylight at epoch
Visualization orbit readout
Latitude
Unknown
Longitude
Unknown
Altitude
Unknown
Speed
Unknown
Apparent Right ascension
Unknown
Apparent Declination
Unknown
Sunlit
N/A
Visualization observer readout
Local Sidereal Time
03:56:00
Azimuth
Unknown
Elevation
Unknown
Doppler factor
Unknown
Orbital elements
Apogee altitude
245.258 km
Perigee altitude
229.965 km
Semi-major axis
6,615.749 km
Eccentricity
0.00116
Inclination
42.9778°
RAAN
258.1419°
Arg. of periapsis
230.305°
True anomaly
129.78334°
Mean anomaly
129.6815°
Eccentric anomaly
129.73243°
Mean motion
4.03343 °/min
Orbital period
89.25 mins
BSTAR
0.009633
Loading maneuver chart data...
Computing Atmospheric mass density...
Loading historical data...
Loading historical data...
Loading historical data...
Loading historical data...
Loading historical data...
Loading historical data...
Loading historical data...

Documentation

Showing up to 5 results
|